TimeCDT,TemperatureF,Dew PointF,Humidity,Sea Level PressureIn,VisibilityMPH,Wind Direction,Wind SpeedMPH,Gust SpeedMPH,PrecipitationIn,Events,Conditions,WindDirDegrees,DateUTC
12:05 AM,55.4,53.6,94,30.03,0.2,Calm,Calm,-,N/A,Fog,Fog,0,2012-10-25 05:05:00
12:25 AM,55.4,53.6,94,30.03,0.5,Calm,Calm,-,N/A,Fog,Fog,0,2012-10-25 05:25:00
12:45 AM,55.4,53.6,94,30.03,3.0,SE,3.5,-,N/A,,Clear,140,2012-10-25 05:45:00
1:05 AM,55.4,53.6,94,30.02,9.0,SSE,3.5,-,N/A,,Clear,150,2012-10-25 06:05:00
1:25 AM,55.4,53.6,94,30.02,10.0,SSE,3.5,-,N/A,,Clear,160,2012-10-25 06:25:00
1:45 AM,55.4,53.6,94,30.02,1.5,SSE,3.5,-,N/A,,Clear,160,2012-10-25 06:45:00
2:05 AM,53.6,53.6,100,30.02,4.0,SSE,3.5,-,N/A,,Clear,150,2012-10-25 07:05:00
2:25 AM,53.6,51.8,94,30.02,1.5,Calm,Calm,-,N/A,,Clear,0,2012-10-25 07:25:00
2:45 AM,53.6,50.0,88,30.02,2.5,Calm,Calm,-,N/A,,Clear,0,2012-10-25 07:45:00
3:05 AM,53.6,51.8,94,30.01,1.8,Calm,Calm,-,N/A,,Clear,0,2012-10-25 08:05:00
3:25 AM,53.6,51.8,94,30.01,2.5,SSE,3.5,-,N/A,,Clear,150,2012-10-25 08:25:00
3:45 AM,50.0,50.0,100,30.00,0.8,SE,3.5,-,N/A,,Mist,140,2012-10-25 08:45:00
4:05 AM,53.6,51.8,94,30.00,5.0,SSE,4.6,-,N/A,,Clear,160,2012-10-25 09:05:00
4:25 AM,55.4,53.6,94,30.00,5.0,SSE,3.5,-,N/A,,Clear,160,2012-10-25 09:25:00
4:45 AM,53.6,51.8,94,30.00,2.0,SE,3.5,-,N/A,,Clear,140,2012-10-25 09:45:00
5:05 AM,50.0,50.0,100,30.00,4.0,SE,3.5,-,N/A,,Clear,130,2012-10-25 10:05:00
5:25 AM,53.6,51.8,94,30.00,6.0,SSE,4.6,-,N/A,,Clear,150,2012-10-25 10:25:00
5:45 AM,53.6,51.8,94,30.01,5.0,SSE,3.5,-,N/A,,Clear,150,2012-10-25 10:45:00
6:05 AM,53.6,50.0,88,30.01,5.0,Calm,Calm,-,N/A,,Clear,0,2012-10-25 11:05:00
6:25 AM,51.8,50.0,94,30.01,8.0,SE,3.5,-,N/A,,Clear,130,2012-10-25 11:25:00
6:45 AM,53.6,50.0,88,30.02,10.0,SE,3.5,-,N/A,,Clear,130,2012-10-25 11:45:00
7:05 AM,53.6,51.8,94,30.02,8.0,Calm,Calm,-,N/A,,Clear,0,2012-10-25 12:05:00
7:25 AM,53.6,50.0,88,30.02,8.0,ESE,4.6,-,N/A,,Clear,120,2012-10-25 12:25:00
8:05 AM,55.4,53.6,94,30.04,7.0,Calm,Calm,-,N/A,,Clear,0,2012-10-25 13:05:00
8:25 AM,59.0,57.2,94,30.05,10.0,SSE,4.6,-,N/A,,Clear,150,2012-10-25 13:25:00
8:45 AM,59.0,57.2,94,30.05,10.0,SSE,5.8,-,N/A,,Clear,150,2012-10-25 13:45:00
9:05 AM,62.6,57.2,82,30.06,10.0,SSE,5.8,-,N/A,,Clear,160,2012-10-25 14:05:00
9:25 AM,66.2,57.2,73,30.07,10.0,South,8.1,-,N/A,,Clear,180,2012-10-25 14:25:00
9:45 AM,68.0,57.2,68,30.07,10.0,South,6.9,-,N/A,,Clear,180,2012-10-25 14:45:00
10:05 AM,69.8,59.0,68,30.06,10.0,SSW,11.5,-,N/A,,Clear,200,2012-10-25 15:05:00
10:25 AM,71.6,59.0,64,30.07,10.0,South,8.1,-,N/A,,Clear,190,2012-10-25 15:25:00
10:45 AM,73.4,59.0,61,30.06,10.0,South,6.9,-,N/A,,Clear,190,2012-10-25 15:45:00
11:05 AM,75.2,59.0,57,30.06,10.0,South,10.4,-,N/A,,Clear,170,2012-10-25 16:05:00
11:25 AM,75.2,59.0,57,30.06,10.0,SSE,6.9,-,N/A,,Clear,160,2012-10-25 16:25:00
12:05 PM,77.0,59.0,54,30.04,10.0,SSW,9.2,19.6,N/A,,Clear,200,2012-10-25 17:05:00
1:05 PM,77.0,57.2,50,30.01,10.0,SSW,15.0,-,N/A,,Mostly Cloudy,210,2012-10-25 18:05:00
1:25 PM,78.8,57.2,47,30.00,10.0,SSW,10.4,-,N/A,,Scattered Clouds,200,2012-10-25 18:25:00
1:45 PM,77.0,57.2,50,29.99,10.0,SSW,11.5,-,N/A,,Scattered Clouds,200,2012-10-25 18:45:00
2:05 PM,78.8,57.2,47,29.98,10.0,South,9.2,-,N/A,,Scattered Clouds,180,2012-10-25 19:05:00
2:20 PM,78.8,57.2,47,29.98,10.0,South,11.5,-,N/A,,Partly Cloudy,170,2012-10-25 19:20:00
2:45 PM,77.0,57.2,50,29.98,10.0,South,9.2,-,N/A,,Clear,170,2012-10-25 19:45:00
3:05 PM,77.0,57.2,50,29.98,10.0,South,8.1,-,N/A,,Partly Cloudy,190,2012-10-25 20:05:00
3:25 PM,77.0,57.2,50,29.98,10.0,South,6.9,-,N/A,,Partly Cloudy,180,2012-10-25 20:25:00
3:45 PM,77.0,57.2,50,29.98,10.0,SSW,8.1,-,N/A,,Partly Cloudy,200,2012-10-25 20:45:00
4:05 PM,77.0,57.2,50,29.97,10.0,South,8.1,-,N/A,,Clear,170,2012-10-25 21:05:00
4:25 PM,77.0,57.2,50,29.97,10.0,South,9.2,-,N/A,,Clear,180,2012-10-25 21:25:00
4:45 PM,77.0,57.2,50,29.97,10.0,SSE,8.1,-,N/A,,Clear,160,2012-10-25 21:45:00
5:05 PM,75.2,57.2,53,29.97,10.0,South,5.8,-,N/A,,Scattered Clouds,170,2012-10-25 22:05:00
5:25 PM,75.2,57.2,53,29.98,10.0,South,5.8,-,N/A,,Mostly Cloudy,170,2012-10-25 22:25:00
5:45 PM,73.4,57.2,57,29.98,10.0,South,4.6,-,N/A,,Mostly Cloudy,170,2012-10-25 22:45:00
6:05 PM,71.6,57.2,60,29.99,10.0,South,4.6,-,N/A,,Scattered Clouds,180,2012-10-25 23:05:00
6:25 PM,71.6,57.2,60,29.99,10.0,South,5.8,-,N/A,,Partly Cloudy,190,2012-10-25 23:25:00
6:45 PM,71.6,57.2,60,29.99,10.0,SSW,5.8,-,N/A,,Clear,200,2012-10-25 23:45:00
7:05 PM,66.2,57.2,73,30.00,10.0,SSE,4.6,-,N/A,,Clear,150,2012-10-26 00:05:00
7:25 PM,66.2,57.2,73,29.99,10.0,SE,3.5,-,N/A,,Clear,140,2012-10-26 00:25:00
8:05 PM,64.4,57.2,77,29.99,10.0,SSE,4.6,-,N/A,,Clear,160,2012-10-26 01:05:00
8:25 PM,66.2,57.2,73,29.99,10.0,SSE,3.5,-,N/A,,Clear,150,2012-10-26 01:25:00
8:45 PM,62.6,57.2,82,30.00,10.0,SSE,3.5,-,N/A,,Clear,150,2012-10-26 01:45:00
9:05 PM,60.8,57.2,88,29.99,10.0,Calm,Calm,-,N/A,,Clear,0,2012-10-26 02:05:00
9:25 PM,59.0,57.2,94,30.00,10.0,Calm,Calm,-,N/A,,Clear,0,2012-10-26 02:25:00
9:45 PM,60.8,57.2,88,30.00,10.0,Calm,Calm,-,N/A,,Clear,0,2012-10-26 02:45:00
10:05 PM,59.0,55.4,88,30.00,10.0,SSE,5.8,-,N/A,,Clear,150,2012-10-26 03:05:00
10:25 PM,59.0,57.2,94,30.00,10.0,South,3.5,-,N/A,,Mostly Cloudy,170,2012-10-26 03:25:00
10:45 PM,59.0,57.2,94,30.00,9.0,Calm,Calm,-,N/A,,Mostly Cloudy,0,2012-10-26 03:45:00
11:05 PM,57.2,55.4,94,30.00,9.0,Calm,Calm,-,N/A,,Mostly Cloudy,0,2012-10-26 04:05:00
11:25 PM,57.2,55.4,94,30.00,10.0,Calm,Calm,-,N/A,,Overcast,0,2012-10-26 04:25:00
11:45 PM,57.2,55.4,94,30.00,7.0,Calm,Calm,-,N/A,,Scattered Clouds,0,2012-10-26 04:45:00